Location: Unspecified
(0.0000°N, 0.0000°E)
Time: 16:52:53
(UTC+00:00)

Vanguard 2 - Pass Details

Date: 13 December 2018
Orbit: 553 x 2939 km, 32.9° (Epoch: 18 June)

Event Time Altitude Azimuth Distance (km) Brightness Sun altitude
Rises 03:21:20 0° 312° (NW) 5,490 - -34.6°
Reaches altitude 10° 03:24:32 10° 315° (NW) 4,754 - -33.9°
Exits shadow 03:32:34 43° 330° (NNW) 3,299 10.2 -32.2°
Maximum altitude 03:39:13 69° 37° (NE) 2,943 10.3 -30.7°
Drops below altitude 10° 03:57:07 10° 117° (ESE) 5,677 12.9 -26.7°
Sets 04:01:20 0° 119° (ESE) 6,565 13.6 -25.7°
